Preview of NWS' New Version of Forecast
This preview is not operational and should not be used for support decisions.

Regional Weather Roundup (RWR)

Issued by Philadelphia/Mt Holly (PHI)

                            
000
ASUS41 KPHI 180211
RWRPHI

REGIONAL WEATHER ROUNDUP
NATIONAL WEATHER SERVICE MOUNT HOLLY NJ
900 PM EST THU JAN 17 2019

NOTE:  "FAIR" INDICATES FEW OR NO CLOUDS BELOW 12,000 FEET WITH NO
SIGNIFICANT WEATHER AND/OR OBSTRUCTIONS TO VISIBILITY.

 * = STATION DOES NOT REPORT PRECIPITATION (E.G. RAIN, SNOW, ETC.) 
        OR FOG.

NJZ015>026-180300-
SOUTHERN NEW JERSEY
  
CITY           SKY/WX    TMP DP  RH WIND       PRES   REMARKS
POMONA         CLOUDY    30  24  78 CALM      30.24F                  
WILDWOOD*      CLOUDY    34  25  69 E5        30.24F WCI  30          
MILLVILLE      CLOUDY    31  22  69 E5        30.23F WCI  26          
WRIGHTSTOWN    CLOUDY    28  20  69 NE6       30.21F WCI  22          
MOUNT HOLLY    CLOUDY    30  20  66 E5        30.24F WCI  25          
TRENTON        CLOUDY    30  19  63 E6        30.24F WCI  24          

$$
NJZ001>014-180300-
NORTHERN NEW JERSEY
  
CITY           SKY/WX    TMP DP  RH WIND       PRES   REMARKS
SUSSEX         CLOUDY    28  14  55 VRB3      30.23F                  
ANDOVER*         N/A     27  13  55 VRB3      30.23F                  
MORRISTOWN     CLOUDY    28  19  69 S3        30.27F                  
NEWARK         CLOUDY    31  19  61 SE3       30.28F                  
TETERBORO      CLOUDY    31  17  56 E3        30.28F                  
CALDWELL       MOCLDY    29  17  61 CALM      30.28F                  
SOMERVILLE     CLOUDY    29  18  63 CALM      30.24F                  
ALLAIRE*       CLOUDY    29  21  72 E5        30.26F WCI  24          
TOMS RIVER*    CLOUDY    28  23  81 NE6       30.25F WCI  22          

$$
PAZ043-044-047-054-055-060>062-066>071-180300-
EASTERN PENNSYLVANIA
  
CITY           SKY/WX    TMP DP  RH WIND       PRES   REMARKS
PHILADELPHIA   CLOUDY    32  20  61 E6        30.25F WCI  26          
NORTH PHILA    CLOUDY    32  19  58 E7        30.25F WCI  26          
BLUE BELL*     CLOUDY    30  19  64 CALM      30.24F                  
DOYLESTOWN     CLOUDY    29  17  61 CALM      30.22F                  
QUAKERTOWN*    CLOUDY    28  14  54 CALM      30.22                   
PERKASIE*      CLOUDY    28  16  59 CALM      30.23F                  
POTTSTOWN      CLOUDY    29   9  43 VRB3      30.24F                  
LANCASTER      CLOUDY    28  25  88 E5        30.22F WCI  23          
COATESVILLE    CLOUDY    28  19  69 VRB6      30.21F WCI  22          
READING        FLURRIES  28  23  81 CALM      30.23F                  
ALLENTOWN      CLOUDY    31  10  41 E3        30.23F                  
MOUNT POCONO   FLURRIES  19  13  77 SE7       30.13F WCI  10          
HAZLETON       CLOUDY   N/A N/A N/A SE6G16    30.15F                  
LEHIGHTON      CLOUDY    28  16  59 CALM      30.23F                  
WILKES BARRE   CLOUDY    25  13  60 S5        30.17F WCI  19          

$$
DEZALL-MDZ008-012-015-019-020-180300-
DELAWARE AND EASTERN MARYLAND
  
CITY           SKY/WX    TMP DP  RH WIND       PRES   REMARKS
WILMINGTON     CLOUDY    31  18  58 E5        30.25S WCI  26          
DOVER          MOCLDY    35  25  69 E6        30.22F WCI  29          
GEORGETOWN     CLOUDY    37  26  64 CALM      30.23F                  
EASTON         PTCLDY    36  27  69 E5        30.25F WCI  32          
PATUXENT       CLOUDY    38  32  79 SE9       30.21  WCI  31          
OCEAN CITY     CLOUDY    39  29  67 E9        30.22F WCI  33          
WALLOPS ISLAND CLOUDY    40  31  70 E6        30.22F                  
CAMBRIDGE      CLOUDY    34  28  80 E5        30.21F WCI  30          
SALISBURY      CLOUDY    34  29  82 NE3       30.21F                  

$$
PAZ001-021-NYZ056-072-MDZ011-DCZ001-180300-
OTHER NEARBY LOCATIONS
  
CITY           SKY/WX    TMP DP  RH WIND       PRES   REMARKS
HARRISBURG     LGT SNOW  28  25  88 SE8       30.20F VSB 1   WCI  20  
STATE COLLEGE  CLOUDY    25  23  93 CALM      30.11F                  
WILLIAMSPORT   LGT SNOW  27  21  78 E9G18     30.17F WCI  18          
BINGHAMTON     CLOUDY    24   6  46 S10       30.07F WCI  14          
NEW YORK CITY  FAIR      31  15  52 MISG      30.29F                  
BALTIMORE      CLOUDY    31  30  96 E6        30.21F FOG     WCI  25  
WASHINGTON DC  LGT SNOW  34  31  88 NE5       30.22F FOG     WCI  30  

$$